This demonstration page uses our WeatherBlox Daily Observations layout. Learn more.

Left ArrowRight Arrow

Hourly Observations for April 28, 2021

Temp ( °F °C ) Dew Point ( °F °C ) Humidity (%) Winds ( mph kmh ) Pressure ( in mb ) Visibility ( mi km ) Precip ( " mm )
12:53 am 00:53 Clear 65 18.3 60 15.6 84 84 Calm 30.09 1019 10 16 0.00 0.00
1:53 am 01:53 Clear 63 17.2 60 15.6 90 90 Calm 30.08 1019 10 16 0.00 0.00
2:53 am 02:53 Clear 63 17.2 60 15.6 90 90 Calm 30.06 1018 10 16 0.00 0.00
3:53 am 03:53 Clear 62 16.7 60 15.6 93 93 Calm 30.07 1018 10 16 0.00 0.00
4:53 am 04:53 Clear 64 17.8 61 16.1 90 90 Calm 30.07 1018 10 16 0.00 0.00
5:53 am 05:53 Clear 63 17.2 60 15.6 90 90 Calm 30.06 1018 10 16 0.00 0.00
6:53 am 06:53 Sunny 62 16.7 60 15.6 93 93 Calm 30.08 1019 10 16 0.00 0.00
7:53 am 07:53 Sunny 64 17.8 61 16.1 90 90 Calm 30.11 1020 10 16 0.00 0.00
8:53 am 08:53 Sunny 68 20 61 16.1 78 78 Calm 30.13 1020 10 16 0.00 0.00
9:53 am 09:53 Sunny 70 21.1 61 16.1 73 73 NW 3 6 30.12 1020 10 16 0.00 0.00
10:53 am 10:53 Sunny 74 23.3 59 15 60 60 WSW 6 9 30.13 1020 10 16 0.00 0.00
11:53 am 11:53 Sunny 78 25.6 60 15.6 54 54 WSW 8 13 30.12 1020 10 16 0.00 0.00
12:53 pm 12:53 Mostly Cloudy 79 26.1 58 14.4 49 49 SSW 8 13 30.11 1020 10 16 0.00 0.00
1:53 pm 13:53 Partly Cloudy 81 27.2 57 13.9 44 44 SW 6 9 30.09 1019 10 16 0.00 0.00
2:53 pm 14:53 Partly Cloudy 82 27.8 57 13.9 42 42 WSW 14 22 30.06 1018 10 16 0.00 0.00
3:53 pm 15:53 Mostly Sunny 82 27.8 57 13.9 42 42 VRB 7 11 30.04 1017 10 16 0.00 0.00
4:53 pm 16:53 Partly Cloudy 81 27.2 56 13.3 42 42 SSW 9 15 30.01 1016 10 16 0.00 0.00
5:53 pm 17:53 Mostly Cloudy 82 27.8 56 13.3 41 41 SSW 12 19 30.01 1016 10 16 0.00 0.00
6:53 pm 18:53 Sunny 81 27.2 56 13.3 42 42 SW 8 13 30.01 1016 10 16 0.00 0.00
7:53 pm 19:53 Sunny 79 26.1 56 13.3 45 45 SSW 6 9 30.01 1016 10 16 0.00 0.00
8:53 pm 20:53 Clear 75 23.9 59 15 58 58 Calm 30.03 1017 10 16 0.00 0.00
9:53 pm 21:53 Clear 68 20 60 15.6 76 76 Calm 30.04 1017 10 16 0.00 0.00
10:53 pm 22:53 Clear 65 18.3 60 15.6 84 84 Calm 30.04 1017 10 16 0.00 0.00
11:53 pm 23:53 Clear 63 17.2 60 15.6 90 90 Calm 30.02 1017 10 16 0.00 0.00

Powered by AerisWeather